{"data":{"norad_id":52674,"intl_designator":"2022-053U","name":"STARLINK-3936","alt_names":[],"object_type":"PAYLOAD","status":"ACTIVE","operator":null,"country":"US","launch_date":"2022-05-18","launch_site_code":"AFETR","launch_vehicle":null,"mission":null,"orbit_class":"UNKNOWN","rcs_meters":null,"size_class":null,"mass_kg":null,"dimensions":null,"purposes":["comms"],"wikipedia_slug":null,"has_3d_model":false,"image_url":null,"decayed_at":null,"tle_current":{"epoch":"2026-05-25T06:00:02.000160Z","epoch_age_seconds":47315,"freshness":"FRESH","line1":"1 52674U 22053U   26145.25002315  .00074423  00000+0  19881-2 0  9990","line2":"2 52674  53.2170 164.7433 0001333  69.1844 125.3614 15.37451888  5843","mean_motion":15.37451888,"eccentricity":0.0001333,"inclination_deg":53.217,"raan_deg":164.7433,"arg_perigee_deg":69.1844,"mean_anomaly_deg":125.3614,"bstar":0.0019881,"rev_number":584,"period_min":93.661467473511,"perigee_km":452.73671729778,"apogee_km":454.55807101726,"semimajor_km":6831.7843941575,"source":"CELESTRAK","updated_at":"2026-05-25T13:38:17.233054Z"}}}